TimeCST,TemperatureF,Dew PointF,Humidity,Sea Level PressureIn,VisibilityMPH,Wind Direction,Wind SpeedMPH,Gust SpeedMPH,PrecipitationIn,Events,Conditions,WindDirDegrees,DateUTC
12:54 AM,36.0,25.0,64,29.60,10.0,WSW,3.5,-,N/A,,Clear,240,2011-11-15 06:54:00
1:54 AM,37.0,25.0,62,29.62,10.0,SW,6.9,-,N/A,,Clear,220,2011-11-15 07:54:00
2:54 AM,34.0,24.1,67,29.62,10.0,SW,4.6,-,N/A,,Clear,220,2011-11-15 08:54:00
3:54 AM,28.9,24.1,82,29.63,10.0,Calm,Calm,-,N/A,,Clear,0,2011-11-15 09:54:00
4:54 AM,27.0,23.0,85,29.65,10.0,Calm,Calm,-,N/A,,Partly Cloudy,0,2011-11-15 10:54:00
5:54 AM,30.0,25.0,82,29.64,10.0,SSW,4.6,-,N/A,,Mostly Cloudy,200,2011-11-15 11:54:00
7:54 AM,33.1,26.1,75,29.67,10.0,ESE,5.8,-,N/A,,Overcast,120,2011-11-15 13:54:00
8:54 AM,35.1,27.0,72,29.68,10.0,SSE,5.8,-,N/A,,Overcast,160,2011-11-15 14:54:00
9:54 AM,37.9,27.0,65,29.66,10.0,South,11.5,16.1,N/A,,Overcast,180,2011-11-15 15:54:00
10:29 AM,35.6,30.2,81,29.63,4.0,South,8.1,-,0.00,Rain,Light Rain,170,2011-11-15 16:29:00
10:41 AM,35.6,30.2,81,29.63,6.0,South,9.2,-,0.00,Rain,Light Rain,170,2011-11-15 16:41:00
10:54 AM,37.0,33.1,86,29.65,5.0,SSE,8.1,-,0.00,Rain,Light Rain,160,2011-11-15 16:54:00
11:26 AM,41.0,37.4,87,29.60,10.0,SSW,10.4,-,0.00,,Overcast,200,2011-11-15 17:26:00
11:47 AM,41.0,37.4,87,29.58,10.0,South,12.7,-,0.00,,Overcast,190,2011-11-15 17:47:00
11:54 AM,42.1,37.0,82,29.60,10.0,South,10.4,-,0.00,,Overcast,180,2011-11-15 17:54:00
12:54 PM,46.9,35.1,63,29.57,10.0,South,13.8,21.9,N/A,,Clear,190,2011-11-15 18:54:00
1:54 PM,48.9,30.9,50,29.56,10.0,SSW,15.0,24.2,N/A,,Clear,200,2011-11-15 19:54:00
2:54 PM,48.0,32.0,54,29.58,10.0,SSW,12.7,-,N/A,,Clear,200,2011-11-15 20:54:00
3:54 PM,45.0,33.1,63,29.60,10.0,South,6.9,-,N/A,,Clear,180,2011-11-15 21:54:00
4:54 PM,41.0,32.0,70,29.60,10.0,SSE,3.5,-,N/A,,Clear,150,2011-11-15 22:54:00
5:54 PM,39.0,32.0,76,29.61,10.0,South,4.6,-,N/A,,Clear,170,2011-11-15 23:54:00
6:54 PM,37.0,32.0,82,29.61,10.0,South,6.9,-,N/A,,Clear,190,2011-11-16 00:54:00
7:54 PM,41.0,30.9,67,29.64,10.0,WSW,10.4,-,N/A,,Clear,250,2011-11-16 01:54:00
8:54 PM,41.0,28.0,60,29.64,10.0,Variable,5.8,-,N/A,,Clear,0,2011-11-16 02:54:00
9:54 PM,37.0,26.1,65,29.69,10.0,West,12.7,20.7,N/A,,Mostly Cloudy,280,2011-11-16 03:54:00
10:54 PM,36.0,25.0,64,29.70,10.0,West,13.8,19.6,N/A,,Clear,270,2011-11-16 04:54:00
11:54 PM,34.0,21.9,61,29.70,10.0,West,5.8,-,N/A,,Clear,260,2011-11-16 05:54:00